CAPE
633 475 49 0 0 0 0 0 0 0 0 0 0 0 0 0 0 0 0 0 0 0 0 0 0 6 13 4 0 0 0 0 0 0 0 0 0 0 0 0 0 0 0
642 392 8 0 0 0 0 0 0 0 0 0 0 0 0 0 0 0 0 0 0 0 6 4 0 9 14 7 0 0 0 0 0 0 0 0 0 0 0 0 0 0 0
541 266 0 0 0 0 0 0 0 0 0 0 0 0 0 0 0 0 0 0 0 0 4 20 21 9 0 0 4 0 0 0 0 0 0 1 0 0 0 0 0 0 0
407 223 0 0 0 10 6 0 0 0 0 0 0 0 0 0 0 0 0 0 8 0 0 3 29 8 5 2 4 6 0 0 0 0 0 1 0 0 0 0 0 0 0
527 240 0 0 0 42 116 49 12 3 0 30 1 4 0 3 40 0 0 0 0 0 12 29 17 27 55 27 11 18 10 1 0 0 0 0 0 0 0 0 0 0 0
630 229 0 0 3 8 75 0 5 0 3 0 57 44 26 53 80 0 26 0 9 0 0 9 1 13 24 27 46 105 71 6 0 0 0 0 0 0 0 0 0 4 6
419 127 1 11 66 0 0 3 0 0 0 27 76 124 95 105 32 7 24 12 26 13 0 3 0 0 5 6 23 31 22 24 17 3 0 0 0 0 0 0 0 4 5
297 146 20 0 55 32 22 76 50 7 36 51 147 216 210 182 38 18 57 36 24 0 0 0 0 0 0 0 0 0 0 0 0 0 0 0 0 0 0 0 2 3 3
363 277 284 215 23 24 69 192 146 156 134 211 246 257 199 110 23 24 6 13 0 0 0 0 0 0 0 0 0 0 0 0 0 0 0 0 0 0 0 3 3 5 5
396 188 190 85 53 84 163 257 244 197 211 219 207 212 111 105 44 22 0 0 0 0 0 0 0 0 0 0 0 0 0 0 0 0 0 0 0 0 0 1 1 4 6
351 200 171 58 110 119 82 127 175 221 166 238 200 106 123 26 0 4 7 0 0 0 0 0 0 0 0 0 0 0 0 0 0 0 1 0 0 0 0 0 1 3 3
340 347 217 155 205 110 85 6 0 4 37 103 121 117 36 0 0 6 0 0 0 0 0 0 0 0 0 0 0 0 0 0 0 0 1 0 0 0 0 0 2 7 5
117 60 8 0 3 5 9 1 0 0 10 105 106 45 1 0 0 0 0 0 0 0 0 0 0 0 0 0 0 0 0 0 0 0 1 0 1 0 0 1 1 5 3
113 10 0 0 0 0 0 0 8 5 50 62 74 50 0 0 0 0 0 0 0 0 0 0 0 0 0 0 0 0 0 0 0 0 0 0 1 0 0 0 2 2 4
38 0 0 0 0 0 0 0 1 3 2 37 17 0 0 0 0 0 0 0 0 0 0 0 0 0 0 0 0 0 0 0 0 0 0 0 0 0 0 1 1 1 5
0 0 0 0 0 0 0 0 0 0 0 0 0 0 0 0 0 0 0 0 0 0 0 0 0 0 0 0 0 0 0 0 0 0 0 0 0 0 3 0 0 0 1
0 0 0 0 0 11 0 0 0 0 0 0 0 0 0 0 0 0 0 0 0 0 0 0 0 0 0 0 0 0 0 0 0 0 0 0 0 0 0 0 1 0 0
0 0 3 19 33 12 0 0 0 0 0 0 0 0 0 0 0 0 0 0 0 0 0 0 0 0 0 0 0 0 0 0 0 0 0 0 0 0 0 0 2 0 0
38 69 49 28 16 3 0 0 0 0 0 0 0 0 0 0 0 0 0 0 0 0 0 0 0 0 0 0 0 0 0 0 0 0 0 0 0 0 0 0 0 0 0
35 10 17 20 9 0 0 0 0 0 0 0 0 0 0 0 0 0 0 0 0 0 0 0 0 0 0 0 0 0 0 0 0 0 0 0 0 0 0 0 0 0 0
11 4 21 19 19 0 0 0 0 0 0 0 0 0 0 0 0 0 0 0 0 0 0 0 0 0 0 0 0 0 0 0 0 0 0 0 0 0 0 0 0 0 0
90 5 3 12 1 0 0 0 0 0 0 0 0 0 0 0 0 0 0 0 0 0 0 0 0 0 0 0 0 0 0 0 0 0 0 0 0 0 0 0 0 0 0
87 56 41 23 0 0 0 0 0 0 1 0 0 0 0 0 0 0 0 0 0 0 0 0 0 0 0 0 0 0 0 0 0 0 0 0 0 0 0 0 0 0 0
3 13 4 0 0 0 0 0 0 0 0 0 0 0 0 0 0 0 0 0 0 0 0 0 0 0 0 0 0 0 0 0 0 0 0 0 0 0 0 0 0 0 0
0 0 10 19 5 2 0 0 0 0 0 0 0 0 0 0 0 0 0 0 0 0 0 0 0 0 0 0 0 0 0 0 0 0 0 0 0 0 0 0 0 0 0
0 0 0 0 1 0 0 0 0 0 0 0 0 0 0 0 0 0 0 0 0 0 0 0 0 0 0 0 0 0 0 0 0 0 0 0 0 0 0 0 0 0 0
CIN
-304 -317 -394 -0 -0 -0 -0 -0 -0 -0 -0 -0 -0 -0 -0 -0 -0 -0 -0 -0 -0 -0 -0 -0 -0 -23 -49 -50 -0 -0 -0 -0 -0 -0 -0 -0 -0 -0 -0 -0 -0 -0 -0
-335 -323 -163 -0 -0 -0 -0 -0 -0 -0 -0 -0 -0 -0 -0 -0 -0 -0 -0 -0 -0 -0 -29 -26 -0 -45 -40 -58 -0 -0 -0 -0 -0 -0 -0 -0 -0 -0 -0 -0 -0 -0 -0
-386 -356 -0 -0 -0 -0 -0 -0 -0 -0 -0 -0 -0 -0 -0 -0 -0 -0 -0 -0 -0 -0 -25 -34 -34 -37 -0 -0 -23 -0 -0 -0 -0 -0 -0 -0 -0 -0 -0 -0 -0 -0 -0
-419 -389 -0 -0 -0 -316 -203 -0 -0 -0 -0 -0 -0 -0 -0 -0 -0 -0 -0 -0 -14 -0 -0 -10 -38 -27 -23 -15 -27 -32 -0 -0 -0 -0 -0 -0 -0 -0 -0 -0 -0 -0 -0
-401 -402 -0 -0 -45 -268 -251 -279 -319 -287 -17 -154 -142 -166 -0 -116 -100 -0 -0 -0 -0 -0 -40 -45 -52 -52 -41 -46 -49 -61 -38 -6 -0 -0 -0 -0 -0 -0 -0 -0 -0 -0 -1
-427 -446 -0 -0 -280 -183 -94 -0 -287 -0 -109 -0 -131 -102 -107 -85 -67 -0 -36 -0 -50 -0 -0 -44 -34 -72 -51 -33 -39 -53 -59 -28 -0 -0 -0 -0 -0 -0 -0 -0 -0 -0 -0
-386 -486 -228 -227 -80 -0 -0 -154 -0 -0 -0 -160 -104 -74 -77 -61 -83 -76 -36 -32 -43 -40 -0 -52 -0 -0 -42 -57 -56 -57 -54 -26 -19 -27 -0 -0 -0 -0 -0 -0 -0 -0 -0
-413 -410 -428 -24 -215 -328 -277 -151 -169 -145 -181 -126 -98 -74 -59 -50 -63 -70 -55 -53 -53 -0 -0 -0 -0 -0 -0 -0 -0 -0 -0 -0 -0 -0 -0 -0 -0 -0 -0 -0 -0 -0 -0
-418 -376 -317 -275 -289 -303 -239 -150 -148 -146 -141 -133 -120 -78 -72 -67 -103 -78 -71 -94 -0 -0 -0 -0 -0 -0 -0 -0 -0 -0 -0 -0 -0 -0 -0 -0 -0 -0 -0 -0 -0 -0 -0
-356 -339 -280 -245 -204 -186 -183 -148 -139 -97 -109 -139 -147 -122 -115 -76 -63 -110 -20 -14 -0 -0 -0 -0 -0 -0 -0 -0 -0 -0 -0 -0 -0 -0 -0 -0 -0 -0 -0 -0 -0 -0 -0
-380 -340 -254 -270 -240 -235 -179 -120 -102 -103 -118 -118 -131 -148 -94 -114 -0 -92 -160 -0 -0 -0 -0 -0 -0 -0 -0 -0 -0 -0 -0 -0 -0 -0 -0 -0 -0 -0 -0 -0 -0 -0 -0
-339 -292 -314 -302 -241 -194 -129 -64 -0 -140 -26 -104 -128 -100 -139 -0 -0 -163 -0 -0 -0 -0 -0 -0 -0 -0 -0 -0 -0 -0 -0 -0 -0 -0 -0 -0 -0 -0 -0 -0 -0 -0 -0
-373 -353 -349 -39 -226 -16 -124 -10 -0 -0 -46 -57 -64 -82 -22 -0 -0 -0 -0 -0 -0 -0 -0 -0 -0 -0 -0 -0 -0 -0 -0 -0 -0 -0 -0 -0 -0 -0 -0 -21 -0 -0 -0
-302 -291 -0 -0 -0 -0 -0 -0 -173 -186 -88 -88 -93 -100 -0 -0 -0 -0 -0 -0 -0 -0 -0 -0 -0 -0 -0 -0 -0 -0 -0 -0 -0 -0 -0 -0 -0 -0 -0 -0 -0 -0 -0
-147 -0 -0 -0 -0 -0 -0 -0 -12 -142 -51 -98 -54 -0 -0 -0 -0 -0 -0 -0 -0 -0 -0 -0 -0 -0 -0 -0 -0 -0 -0 -0 -0 -0 -0 -0 -0 -0 -0 -0 -0 -0 -0
-0 -0 -0 -0 -0 -0 -0 -0 -0 -0 -0 -0 -0 -0 -0 -0 -0 -0 -0 -0 -0 -0 -0 -0 -0 -0 -0 -0 -0 -0 -0 -0 -0 -0 -0 -0 -0 -0 -0 -0 -0 -0 -0
-0 -0 -0 -0 -0 -182 -76 -0 -0 -0 -0 -0 -0 -0 -0 -0 -0 -0 -0 -0 -0 -0 -0 -0 -0 -0 -0 -0 -0 -0 -0 -0 -0 -0 -0 -0 -0 -0 -0 -0 -0 -0 -0
-0 -0 -43 -189 -172 -206 -0 -0 -0 -0 -0 -0 -0 -0 -0 -0 -0 -0 -0 -0 -0 -0 -0 -0 -0 -0 -0 -0 -0 -0 -0 -0 -0 -0 -0 -0 -0 -0 -0 -0 -0 -0 -0
-175 -153 -162 -189 -208 -189 -0 -0 -0 -0 -0 -0 -0 -0 -0 -0 -0 -0 -0 -0 -0 -0 -0 -0 -0 -0 -0 -0 -0 -0 -0 -0 -0 -0 -0 -0 -0 -0 -0 -0 -0 -0 -0
-173 -188 -176 -158 -129 -0 -0 -0 -0 -0 -0 -0 -0 -0 -0 -0 -0 -0 -0 -0 -0 -0 -0 -0 -0 -0 -0 -0 -0 -0 -0 -0 -0 -0 -0 -0 -0 -0 -0 -0 -0 -0 -0
-216 -224 -193 -181 -154 -0 -0 -0 -0 -0 -0 -0 -0 -0 -0 -0 -0 -0 -0 -0 -0 -0 -0 -0 -0 -0 -0 -0 -0 -0 -0 -0 -0 -0 -0 -0 -0 -0 -0 -0 -0 -0 -0
-105 -105 -44 -135 -60 -0 -0 -0 -0 -0 -0 -0 -0 -0 -0 -0 -0 -0 -0 -0 -5 -0 -0 -0 -0 -0 -0 -0 -0 -0 -0 -0 -0 -0 -0 -0 -0 -0 -0 -0 -0 -0 -0
-71 -85 -115 -121 -0 -19 -0 -0 -0 -0 -52 -0 -0 -0 -0 -0 -0 -0 -0 -0 -0 -0 -0 -0 -0 -0 -0 -0 -0 -0 -0 -0 -0 -0 -0 -0 -0 -0 -0 -0 -0 -0 -0
-14 -82 -38 -0 -0 -0 -0 -0 -0 -0 -0 -0 -0 -0 -0 -0 -0 -0 -0 -0 -0 -0 -0 -0 -0 -0 -0 -0 -0 -0 -0 -0 -0 -0 -0 -0 -0 -0 -0 -0 -0 -0 -0
-0 -0 -64 -41 -49 -53 -17 -0 -0 -0 -0 -0 -0 -0 -0 -0 -0 -0 -0 -0 -0 -0 -0 -0 -0 -0 -0 -0 -0 -0 -0 -0 -0 -0 -0 -0 -0 -0 -0 -0 -0 -0 -0
-0 -0 -0 -0 -54 -0 -0 -0 -0 -0 -0 -0 -0 -0 -0 -0 -0 -0 -0 -0 -0 -0 -0 -0 -0 -0 -0 -0 -0 -0 -0 -0 -0 -0 -0 -0 -0 -0 -0 -0 -0 -0 -0
Wind_Speed
16 13 10 5 3 2 2 3 5 7 9 9 11 11 12 14 15 16 16 16 15 14 14 14 13 13 16 15 16 19 21 22 26 28 27 34 38 39 41 41 42 43 43
17 15 13 9 5 5 4 3 4 5 7 7 8 10 12 14 15 16 17 17 16 16 16 15 14 16 17 17 17 20 21 22 24 28 31 36 36 40 43 44 45 44 46
17 18 17 13 9 8 5 4 3 5 6 6 7 9 12 14 16 17 17 18 17 17 16 15 16 18 19 19 18 21 21 22 23 26 32 35 36 39 41 44 45 47 47
20 20 21 17 13 10 7 6 5 5 7 5 7 9 12 14 16 16 16 17 19 18 18 17 15 16 18 21 23 23 22 22 23 26 31 36 35 40 41 48 51 48 51
21 23 22 18 13 10 9 7 6 5 6 11 10 10 13 15 15 14 17 19 19 20 18 18 16 19 21 23 24 23 21 22 25 26 29 33 37 41 43 46 54 56 52
20 20 17 19 12 19 14 9 7 6 7 11 9 9 13 15 14 14 17 18 16 19 18 19 21 25 25 24 22 20 22 28 29 29 30 33 35 38 39 46 55 55 58
15 14 16 13 15 17 14 12 10 8 10 11 8 11 14 15 16 17 17 18 17 17 17 19 21 27 24 24 23 24 24 26 25 27 31 34 35 35 38 53 54 54 58
13 11 11 14 17 12 13 14 10 10 10 13 10 14 17 17 18 19 20 18 18 17 17 22 23 28 25 24 23 24 27 28 29 28 28 27 28 30 33 53 58 61 58
11 11 12 12 15 11 11 13 12 12 15 13 16 19 19 19 23 24 17 17 20 21 21 23 26 27 26 22 22 28 27 31 29 30 26 23 26 30 34 54 60 60 59
11 12 10 9 10 11 10 11 13 15 16 15 20 20 18 18 19 13 16 17 20 23 24 26 27 25 24 23 24 27 29 31 34 35 24 22 27 35 40 38 54 56 53
12 10 8 12 12 13 16 20 22 22 20 17 19 19 15 13 12 16 15 17 20 22 25 26 27 24 22 24 24 25 26 29 33 27 29 24 30 40 45 52 50 45 43
10 9 8 11 13 9 10 16 23 33 40 19 17 22 22 16 17 16 14 15 17 21 25 25 25 22 22 23 27 28 28 27 29 29 30 25 34 44 49 52 46 38 32
8 8 9 9 11 10 11 14 13 17 18 17 15 15 22 19 16 16 16 18 19 22 22 24 23 20 22 24 28 30 31 30 31 33 29 25 21 32 37 46 41 34 26
8 12 12 9 9 12 14 13 17 18 16 13 13 17 19 17 17 18 19 21 23 23 23 23 18 20 23 25 28 30 29 29 31 32 29 28 18 25 38 40 38 32 25
9 12 13 12 13 15 19 17 16 17 13 15 15 14 13 14 16 17 20 21 22 22 23 19 19 21 24 27 29 28 28 29 31 32 32 32 25 22 30 34 34 32 25
12 16 16 15 16 15 15 18 19 17 15 14 13 13 16 16 17 21 20 18 17 17 19 18 18 20 23 25 26 28 28 30 31 33 33 31 28 13 22 30 31 30 24
18 17 13 12 14 16 14 15 15 18 16 14 14 15 17 18 19 21 22 19 17 16 17 17 18 20 22 22 25 26 28 30 31 32 33 33 33 29 20 26 29 29 24
16 15 13 14 13 12 11 11 11 10 12 13 16 16 16 17 19 20 19 19 19 19 17 18 18 19 20 23 25 27 28 30 30 31 33 33 35 33 28 31 22 24 20
14 13 13 13 13 12 10 11 9 10 13 13 13 14 15 17 20 21 21 19 17 17 17 16 16 18 20 24 26 26 27 28 29 30 31 32 32 33 33 28 20 24 24
16 14 13 13 11 10 9 10 10 10 11 13 13 14 15 17 19 20 20 18 16 15 15 16 17 19 21 23 24 24 24 26 27 28 29 30 31 30 30 30 29 26 26
16 14 13 11 10 9 10 11 10 9 11 11 12 13 13 16 18 18 18 16 15 15 14 15 16 19 20 22 22 20 22 23 25 26 27 28 28 29 29 28 27 29 23
18 16 14 12 10 9 8 9 10 9 10 11 13 12 12 15 17 18 17 18 15 15 13 14 16 17 18 18 18 19 20 22 23 24 25 26 27 28 28 28 27 26 27
18 16 13 11 9 8 8 10 11 11 11 12 12 11 11 13 15 16 15 16 13 11 12 14 15 15 15 15 16 18 19 20 22 23 24 25 26 26 26 27 27 26 24
15 12 11 10 8 7 9 9 10 11 12 12 10 10 11 11 12 14 13 13 10 10 12 13 14 14 13 13 15 16 18 20 21 22 23 24 24 24 25 25 25 25 24
14 12 9 6 5 6 6 7 10 11 10 10 9 9 9 8 10 12 11 9 8 9 10 12 13 12 12 13 14 16 18 19 20 21 21 22 22 22 22 23 23 23 23
14 12 8 10 8 6 5 6 7 7 9 8 8 9 6 4 6 8 8 7 6 7 8 9 11 11 12 13 15 16 17 18 18 20 20 21 20 20 21 21 21 21 21
Wind_Direction
203 204 207 225 257 266 297 337 356 2 3 2 5 8 7 4 1 358 355 354 353 351 350 346 343 342 339 334 334 334 330 329 324 325 325 318 314 312 311 313 309 304 299
205 206 210 220 250 252 268 289 332 346 354 2 7 9 5 360 357 355 353 353 350 347 343 342 339 338 331 329 327 325 325 324 323 321 320 316 316 313 311 310 311 307 299
212 209 210 217 234 240 246 265 294 325 338 357 5 9 1 356 353 351 351 348 345 343 340 336 334 336 333 330 325 321 321 321 320 319 318 319 317 316 314 313 310 307 302
219 217 216 220 231 235 233 248 263 298 322 339 357 0 355 352 350 351 349 347 344 344 344 341 334 334 332 330 326 322 323 322 321 319 318 319 319 317 314 308 307 311 302
227 225 225 221 229 247 239 245 238 280 313 319 333 344 347 346 349 354 349 344 342 340 343 342 338 335 331 330 329 327 327 326 324 322 320 321 320 317 314 313 308 306 301
239 240 273 258 283 292 283 244 244 265 296 313 308 326 338 343 346 350 347 345 341 338 336 340 339 336 330 328 327 324 325 324 322 321 321 321 321 321 322 317 312 308 295
262 262 262 248 265 228 246 237 254 264 300 299 300 315 329 335 339 342 344 344 339 338 336 336 336 336 336 332 329 328 328 328 325 325 322 321 321 326 326 314 310 305 296
272 260 234 230 254 257 233 233 260 277 284 299 291 310 323 327 331 333 335 339 336 340 338 335 336 334 333 333 332 330 329 329 329 329 324 323 325 328 327 313 301 297 293
274 258 240 234 232 251 257 248 265 291 295 295 309 311 316 325 328 331 338 336 332 335 337 338 336 335 335 336 335 331 331 328 333 332 330 324 325 328 328 318 302 297 288
291 279 262 254 265 257 266 266 276 285 286 296 305 312 315 324 324 324 331 332 332 333 335 337 336 336 338 339 338 337 332 333 334 333 339 338 335 337 337 333 323 292 290
313 310 294 307 310 307 309 314 314 293 294 298 300 306 313 319 327 331 331 333 334 335 336 337 336 339 341 340 342 342 340 340 338 343 339 342 343 341 342 333 300 286 266
318 315 306 318 310 329 328 330 323 309 286 302 311 313 318 322 327 333 335 339 341 337 336 337 337 339 340 339 337 336 342 346 345 345 344 350 346 344 347 316 306 293 275
340 334 327 326 315 325 325 325 307 322 308 309 310 314 320 326 336 342 344 342 341 337 338 338 338 342 340 339 334 334 336 342 341 340 351 357 359 357 358 322 318 314 300
338 332 328 322 317 321 332 321 311 307 311 319 323 321 323 326 332 338 340 339 336 337 337 339 344 342 339 337 337 334 337 341 338 343 356 358 4 9 9 326 327 323 318
341 332 331 317 315 315 327 330 327 323 319 325 327 330 331 334 339 342 340 336 336 338 339 344 344 341 338 336 337 339 338 336 333 339 352 358 11 13 351 327 332 335 332
333 329 326 322 322 323 324 326 333 333 338 342 346 346 344 348 346 341 339 339 342 346 345 348 347 346 342 342 339 332 336 332 332 338 347 359 11 9 317 328 336 339 332
322 326 331 332 327 326 326 325 324 333 343 349 348 349 346 347 349 344 345 350 350 350 347 348 346 344 344 345 340 336 335 334 333 339 343 354 2 17 313 323 335 341 334
321 323 322 323 324 326 326 329 331 335 338 341 344 346 348 350 347 346 351 350 347 347 348 347 348 347 345 339 335 334 335 334 335 337 338 344 345 4 22 333 323 332 332
329 325 323 329 330 328 332 330 346 335 333 339 346 349 349 346 344 343 341 337 339 342 347 350 351 347 345 336 333 334 334 336 338 338 341 343 343 346 353 24 316 332 339
330 337 338 337 340 342 344 344 338 339 340 341 341 343 348 350 346 345 345 344 344 345 348 350 347 343 344 339 338 340 341 338 336 340 343 343 343 345 346 351 357 335 342
329 329 337 339 337 341 340 334 345 349 344 348 347 347 349 346 348 349 347 346 345 344 347 349 348 343 342 341 344 350 346 343 341 341 344 345 344 344 345 346 350 5 336
319 325 327 327 329 335 341 339 341 342 341 340 340 343 346 344 347 347 347 342 344 344 350 354 352 351 350 353 355 353 351 347 344 343 343 346 348 349 352 353 352 353 4
320 324 326 325 323 333 335 335 333 331 331 334 335 341 342 343 346 349 349 349 356 0 360 358 357 358 3 7 5 1 354 351 348 347 343 345 348 350 353 355 357 357 355
326 328 328 328 326 329 330 330 335 335 333 335 334 330 331 336 341 345 349 353 3 1 359 357 357 2 6 7 5 1 357 353 351 348 346 346 348 352 355 357 357 357 359
334 338 341 345 335 332 342 339 335 338 341 343 342 334 329 330 337 342 348 360 9 6 4 2 2 5 5 4 1 356 351 351 351 349 349 350 349 351 355 357 360 0 0
352 358 344 330 333 333 333 334 335 335 333 338 340 336 329 322 332 340 345 356 358 356 1 7 6 8 8 4 2 357 352 349 352 351 350 350 351 351 354 357 359 1 3